EN

Hourly Weather Al Khums

Today, 19 January, Tuesday

Time Temperature Precipitation Wind Pressure Humidity
00:00 +12°C° 0.1 mm 7 mps 767 mmHg 72%
01:00 +13°C° 0.1 mm 6 mps 767 mmHg 73%
02:00 +11°C° 0 mm 6 mps 767 mmHg 72%
03:00 +11°C° 0 mm 6 mps 767 mmHg 71%
04:00 +11°C° 0 mm 6 mps 767 mmHg 71%
05:00 +11°C° 0.1 mm 6 mps 767 mmHg 71%
06:00 +11°C° 0.1 mm 6 mps 768 mmHg 72%
07:00 +11°C° 0.1 mm 6 mps 768 mmHg 73%
08:00 +13°C° 0 mm 6 mps 768 mmHg 67%
09:00 +14°C° 0 mm 7 mps 769 mmHg 61%
10:00 +15°C° 0 mm 7 mps 769 mmHg 55%
11:00 +15°C° 0 mm 7 mps 769 mmHg 54%
12:00 +15°C° 0 mm 6 mps 769 mmHg 53%
13:00 +15°C° 0 mm 6 mps 769 mmHg 52%
14:00 +15°C° 0 mm 6 mps 769 mmHg 52%
15:00 +15°C° 0 mm 5 mps 769 mmHg 52%
16:00 +14°C° 0 mm 4 mps 769 mmHg 52%
17:00 +14°C° 0 mm 4 mps 769 mmHg 55%
18:00 +13°C° 0 mm 3 mps 769 mmHg 57%
19:00 +14°C° 0 mm 2 mps 769 mmHg 59%
20:00 +13°C° 0 mm 2 mps 770 mmHg 60%
21:00 +13°C° 0 mm 1 mps 770 mmHg 61%
22:00 +12°C° 0 mm 1 mps 771 mmHg 63%
23:00 +12°C° 0 mm 1 mps 771 mmHg 63%

Tomorrow, 20 January, Wednesday

Time Temperature Precipitation Wind Pressure Humidity
00:00 +12°C° 0 mm 1 mps 770 mmHg 64%
01:00 +12°C° 0 mm 1 mps 770 mmHg 64%
02:00 +12°C° 0 mm 1 mps 770 mmHg 64%
03:00 +12°C° 0 mm 2 mps 770 mmHg 64%
04:00 +11°C° 0 mm 3 mps 770 mmHg 64%
05:00 +11°C° 0 mm 3 mps 770 mmHg 66%
06:00 +10°C° 0 mm 4 mps 770 mmHg 67%
07:00 +10°C° 0 mm 4 mps 769 mmHg 68%
08:00 +10°C° 0 mm 5 mps 770 mmHg 64%
09:00 +12°C° 0 mm 5 mps 770 mmHg 59%
10:00 +13°C° 0 mm 6 mps 771 mmHg 55%
11:00 +14°C° 0 mm 5 mps 770 mmHg 50%
12:00 +15°C° 0 mm 5 mps 769 mmHg 46%
13:00 +17°C° 0 mm 4 mps 769 mmHg 42%
14:00 +17°C° 0 mm 4 mps 769 mmHg 41%
15:00 +16°C° 0 mm 5 mps 768 mmHg 41%
16:00 +17°C° 0 mm 5 mps 768 mmHg 41%
17:00 +16°C° 0 mm 5 mps 768 mmHg 44%
18:00 +15°C° 0 mm 6 mps 768 mmHg 46%
19:00 +14°C° 0 mm 6 mps 768 mmHg 49%
20:00 +14°C° 0 mm 6 mps 768 mmHg 50%
21:00 +13°C° 0 mm 6 mps 768 mmHg 52%
22:00 +13°C° 0 mm 6 mps 768 mmHg 53%
23:00 +13°C° 0 mm 6 mps 767 mmHg 55%

Day after tomorrow, 21 January, Thursday

Time Temperature Precipitation Wind Pressure Humidity
00:00 +11°C° 0 mm 6 mps 767 mmHg 56%
01:00 +11°C° 0 mm 7 mps 767 mmHg 58%
02:00 +11°C° 0 mm 7 mps 767 mmHg 58%
03:00 +10°C° 0 mm 7 mps 767 mmHg 58%
04:00 +10°C° 0 mm 7 mps 766 mmHg 59%
05:00 +10°C° 0 mm 7 mps 767 mmHg 59%
06:00 +10°C° 0 mm 7 mps 767 mmHg 59%
07:00 +10°C° 0 mm 7 mps 767 mmHg 59%
08:00 +11°C° 0 mm 7 mps 767 mmHg 54%
09:00 +12°C° 0 mm 7 mps 767 mmHg 50%
10:00 +15°C° 0 mm 7 mps 767 mmHg 45%
11:00 +16°C° 0 mm 7 mps 766 mmHg 42%
12:00 +17°C° 0 mm 6 mps 766 mmHg 39%
13:00 +19°C° 0 mm 6 mps 765 mmHg 36%
14:00 +19°C° 0 mm 5 mps 765 mmHg 36%
15:00 +19°C° 0 mm 5 mps 765 mmHg 36%
16:00 +19°C° 0 mm 4 mps 764 mmHg 35%
17:00 +18°C° 0 mm 4 mps 764 mmHg 38%
18:00 +17°C° 0 mm 3 mps 765 mmHg 41%
19:00 +17°C° 0 mm 2 mps 765 mmHg 44%
20:00 +16°C° 0 mm 3 mps 765 mmHg 43%
21:00 +16°C° 0 mm 3 mps 765 mmHg 43%
22:00 +16°C° 0 mm 3 mps 764 mmHg 43%
23:00 +15°C° 0 mm 4 mps 764 mmHg 43%

22 January, Friday

Time Temperature Precipitation Wind Pressure Humidity
00:00 +14°C° 0 mm 5 mps 764 mmHg 43%
01:00 +14°C° 0 mm 5 mps 764 mmHg 43%
02:00 +14°C° 0 mm 6 mps 764 mmHg 43%
03:00 +13°C° 0 mm 6 mps 764 mmHg 44%
04:00 +13°C° 0 mm 6 mps 764 mmHg 44%
05:00 +13°C° 0 mm 6 mps 764 mmHg 44%
06:00 +13°C° 0 mm 5 mps 764 mmHg 45%
07:00 +13°C° 0 mm 5 mps 764 mmHg 45%
08:00 +14°C° 0 mm 5 mps 764 mmHg 42%
09:00 +17°C° 0 mm 4 mps 764 mmHg 38%
10:00 +18°C° 0 mm 3 mps 764 mmHg 35%
11:00 +19°C° 0 mm 3 mps 764 mmHg 33%
12:00 +19°C° 0 mm 2 mps 763 mmHg 32%
13:00 +20°C° 0 mm 2 mps 763 mmHg 30%
14:00 +20°C° 0 mm 2 mps 762 mmHg 32%
15:00 +20°C° 0 mm 2 mps 762 mmHg 34%
16:00 +20°C° 0 mm 2 mps 761 mmHg 36%
17:00 +18°C° 0 mm 2 mps 761 mmHg 42%
18:00 +17°C° 0 mm 2 mps 761 mmHg 47%
19:00 +16°C° 0 mm 2 mps 761 mmHg 52%
20:00 +16°C° 0 mm 2 mps 761 mmHg 50%
21:00 +16°C° 0 mm 2 mps 761 mmHg 48%
22:00 +16°C° 0 mm 2 mps 761 mmHg 46%
23:00 +16°C° 0 mm 3 mps 761 mmHg 42%

23 January, Saturday

Time Temperature Precipitation Wind Pressure Humidity
00:00 +15°C° 0 mm 4 mps 761 mmHg 38%
01:00 +15°C° 0 mm 5 mps 761 mmHg 34%
02:00 +15°C° 0 mm 5 mps 760 mmHg 35%
03:00 +14°C° 0 mm 5 mps 760 mmHg 36%
04:00 +14°C° 0 mm 5 mps 759 mmHg 37%
05:00 +15°C° 0 mm 6 mps 759 mmHg 38%
06:00 +15°C° 0 mm 7 mps 759 mmHg 40%
07:00 +15°C° 0 mm 7 mps 760 mmHg 41%
08:00 +16°C° 0 mm 9 mps 760 mmHg 40%
09:00 +17°C° 0 mm 10 mps 760 mmHg 38%
10:00 +18°C° 0 mm 12 mps 760 mmHg 37%
11:00 +18°C° 0 mm 10 mps 760 mmHg 41%
12:00 +18°C° 0 mm 9 mps 760 mmHg 45%
13:00 +18°C° 0 mm 8 mps 760 mmHg 50%
14:00 +18°C° 0 mm 7 mps 760 mmHg 52%
15:00 +17°C° 0 mm 7 mps 760 mmHg 55%
16:00 +17°C° 0 mm 7 mps 760 mmHg 58%
17:00 +16°C° 0 mm 6 mps 761 mmHg 61%
18:00 +15°C° 0 mm 6 mps 761 mmHg 63%
19:00 +15°C° 0 mm 6 mps 762 mmHg 66%
20:00 +14°C° 0 mm 6 mps 762 mmHg 67%
21:00 +14°C° 0 mm 5 mps 762 mmHg 69%
22:00 +13°C° 0 mm 5 mps 763 mmHg 70%
23:00 +13°C° 0 mm 4 mps 763 mmHg 70%

24 January, Sunday

Time Temperature Precipitation Wind Pressure Humidity
00:00 +13°C° 0 mm 4 mps 763 mmHg 69%
01:00 +13°C° 0 mm 4 mps 763 mmHg 69%
02:00 +12°C° 0 mm 4 mps 763 mmHg 69%
03:00 +12°C° 0 mm 3 mps 762 mmHg 69%
04:00 +11°C° 0 mm 3 mps 762 mmHg 69%
05:00 +11°C° 0 mm 3 mps 762 mmHg 66%
06:00 +11°C° 0 mm 3 mps 762 mmHg 63%
07:00 +11°C° 0 mm 3 mps 763 mmHg 60%
08:00 +13°C° 0 mm 4 mps 763 mmHg 53%
09:00 +14°C° 0 mm 4 mps 763 mmHg 47%
10:00 +16°C° 0 mm 5 mps 763 mmHg 40%
11:00 +17°C° 0 mm 5 mps 763 mmHg 37%
12:00 +19°C° 0 mm 5 mps 762 mmHg 34%
13:00 +20°C° 0 mm 4 mps 762 mmHg 31%
14:00 +20°C° 0 mm 4 mps 762 mmHg 32%
15:00 +20°C° 0 mm 4 mps 761 mmHg 34%
16:00 +20°C° 0 mm 4 mps 761 mmHg 36%
17:00 +19°C° 0 mm 4 mps 761 mmHg 38%
18:00 +18°C° 0 mm 3 mps 761 mmHg 40%
19:00 +17°C° 0 mm 3 mps 761 mmHg 42%
20:00 +17°C° 0 mm 4 mps 761 mmHg 41%
21:00 +16°C° 0 mm 5 mps 761 mmHg 40%
22:00 +15°C° 0 mm 6 mps 762 mmHg 40%
23:00 +15°C° 0 mm 5 mps 762 mmHg 40%
Show more